Location: Borgo
(42.3939°N, 9.2791°E)
Time: 15:43:50
(UTC+00:00)

Daily predictions for brighter satellites

Satellite Brightness Start Highest point End
(mag) Time Altitude Azimuth Time Altitude Azimuth Time Altitude Azimuth
Cosmos 1844 3.9 16:51:28 10° S 16:56:55 53° ESE 17:02:29 10° NNE
Meteor 2-10 Rocket 3.6 16:52:06 10° N 16:57:30 61° ENE 17:02:38 10° SSE
AQUARIUS 4.2 16:53:49 10° SSE 16:58:18 89° WSW 17:02:50 10° NNW
NOAA 12 4.4 16:56:16 10° S 17:01:28 74° WSW 17:06:44 10° NNW
Cosmos 1844 Rocket 2.7 17:00:21 10° SSW 17:06:00 78° ESE 17:11:40 10° NNE
Nadezhda 4 Rocket 4.1 17:01:23 10° SSE 17:07:27 56° E 17:13:30 10° NNE
H-2A R/B 3.4 17:04:04 10° S 17:08:01 54° W 17:12:10 10° NNW
Cosmos 2058 Rocket 3.1 17:03:39 10° N 17:08:11 73° E 17:12:40 10° SSE
MOS 1 Rocket 3.8 17:04:24 10° NNE 17:08:18 32° E 17:12:10 10° SSE
CSL-04 DEB 4.5 17:05:07 10° NNE 17:09:14 61° ESE 17:13:13 10° S
EXPRESS MD2 4.3 17:00:51 10° WNW 17:09:56 88° NNE 17:14:09 10° ESE
Cosmos 158 Rocket 4.2 17:05:16 10° N 17:10:30 51° ENE 17:15:44 10° SE
Cosmos 1726 Rocket 4.2 17:08:35 10° NNW 17:12:55 61° W 17:17:15 10° S
Cosmos 1689 Rocket 3.7 17:15:06 14° ENE 17:16:01 15° E 17:17:47 10° SE
Helios 1A Rocket 4.3 17:13:51 10° ESE 17:16:44 19° ENE 17:19:38 10° NNE
Aureole 3 3.1 17:14:41 10° N 17:17:43 38° ENE 17:20:31 10° SSE
Cosmos 1626 Rocket 3.8 17:15:40 10° SSE 17:19:51 46° E 17:24:05 10° NNE
Hubble Space Telescope 3.5 17:22:12 10° SSW 17:23:30 11° S 17:24:49 10° SSE
Cosmos 2278 Rocket 3.5 17:21:48 10° SE 17:25:50 20° E 17:28:29 15° ENE
Okean 1-7 Rocket 3.9 17:23:32 10° SSW 17:28:04 74° W 17:32:39 10° N
ATLAS 5 CENTAUR R/B 4.1 17:26:56 10° NW 17:28:44 12° NNW 17:30:37 10° N
Cosmos 1328 4.5 17:25:33 10° SSE 17:29:09 33° E 17:32:43 10° NNE
CZ-4B R/B 4.3 17:24:07 10° S 17:29:29 50° W 17:34:58 10° NNW
Cosmos 405 4.4 17:27:11 10° NNE 17:29:22 18° ENE 17:29:22 18° ENE
Iridium 4 Rocket 4.0 17:29:44 10° NNE 17:34:48 37° E 17:39:28 10° SSE
Lacrosse 5 2.1 17:30:50 10° NW 17:35:53 73° SW 17:40:53 10° SE
Cosmos 1939 Rocket 3.3 17:32:09 10° S 17:36:15 69° W 17:40:19 10° NNW
Cosmos 923 Rocket 4.0 17:31:17 10° NNW 17:36:38 76° ENE 17:41:55 10° SSE
Cosmos 1898 Rocket 3.6 17:32:29 10° S 17:37:37 55° ESE 17:42:43 10° NNE
COSMO-SKYMED 1 2.6 17:34:43 10° NNE 17:39:05 87° WNW 17:43:25 10° SSW
Cosmos 1680 Rocket 3.4 17:37:15 10° NNW 17:42:29 65° ENE 17:47:38 10° SSE
CREW DRAGON DEMO-1 DEB 2.6 17:40:09 10° WNW 17:43:03 88° SW 17:44:37 24° SE
Cosmos 2026 Rocket 4.1 17:37:45 10° SSE 17:43:36 50° E 17:49:34 10° NNE
Cosmos 1758 Rocket 4.2 17:40:11 10° SSE 17:44:09 33° E 17:47:29 14° NNE
Aureole 3 Rocket 3.2 17:41:50 10° NNE 17:44:40 30° E 17:47:58 10° SE
Feng Yun 1-1 Rocket 4.3 17:40:07 10° SSE 17:45:33 80° WSW 17:51:09 10° NNW
CZ-2D R/B 3.3 17:43:02 10° S 17:46:53 79° W 17:50:44 10° NNW
Meteor 2-8 Rocket 4.5 17:41:02 10° N 17:47:00 54° ENE 17:52:58 10° SSE
ISS -2.0 17:45:02 10° WNW 17:47:53 24° NNW 17:49:25 18° NNE
NOSS 2-1 (E) 2.7 17:44:43 10° SSW 17:48:05 81° SE 17:49:50 26° NE
IRS-1C Rocket 4.0 17:45:43 10° SSE 17:50:58 86° ENE 17:56:16 10° NNW
H-2A R/B 2.0 17:46:22 10° SSE 17:51:13 54° ENE 17:56:14 10° N
Cosmos 1340 2.5 17:47:42 10° S 17:51:24 64° E 17:54:46 12° NNE
Meteor 1-21 Rocket 4.3 17:47:15 10° SSW 17:52:46 76° W 17:58:20 10° N
Cosmos 2098 Rocket 4.5 17:46:21 10° SSE 17:53:18 54° E 18:00:26 10° NNE
ERS-2 2.0 17:50:43 10° NNE 17:54:22 84° ESE 17:57:59 10° SSW
Cosmos 1455 3.1 17:52:10 10° NNW 17:55:53 50° W 17:59:36 10° S
CZ-4 R/B 1.2 17:52:48 10° SSE 17:56:53 76° ENE 18:00:53 10° N
Cosmos-2242 3.5 17:54:06 10° N 17:58:02 34° ENE 17:59:06 30° ESE
Cosmos 1602 Rocket 3.5 17:57:16 10° S 18:01:36 84° W 18:06:00 10° N
ARGOS 3.3 17:56:44 10° SE 18:01:52 49° ENE 18:07:02 10° N
Okean O Rocket 4.4 18:01:06 10° SW 18:04:29 21° W 18:07:52 10° NW
YAOGAN 1 2.4 18:01:44 10° SSE 18:06:03 81° ENE 18:10:23 10° N
Cosmos 1937 Rocket 3.4 18:01:15 10° S 18:06:32 73° ESE 18:10:47 16° NNE
Okean-O 2.5 18:04:13 10° SSE 18:08:38 89° E 18:13:06 10° NNW
PSLV R/B 4.1 18:06:59 10° N 18:11:13 76° WNW 18:15:24 10° SSW
S3M 4.5 18:06:50 10° N 18:12:18 33° ENE 18:12:25 33° ENE
CZ-2C R/B 3.0 18:10:30 24° NE 18:13:34 44° E 18:18:55 10° S
CZ-2C R/B 3.9 18:08:25 10° S 18:13:39 56° W 18:19:11 10° NNW
Cosmos 2344 4.4 18:05:08 10° NNW 18:14:29 63° NE 18:27:30 10° SE
SJ 16-02 3.5 18:11:18 10° WSW 18:14:54 24° WNW 18:18:30 10° N
SJ-11-01 4.2 18:11:48 10° SSE 18:16:30 86° ENE 18:21:12 10° NNW
Cosmos 1825 Rocket 3.5 18:13:43 10° S 18:17:58 57° E 18:18:30 53° ENE
Meteor 1-27 4.3 18:15:47 10° N 18:21:12 48° ENE 18:23:15 33° SE
Cosmos 2112 Rocket 4.3 18:16:02 10° NNW 18:21:14 68° WSW 18:26:22 10° S
Cosmos 1812 Rocket 3.9 18:17:57 10° NNW 18:22:17 63° W 18:26:35 10° S
CSL-04 Debris 4.0 18:18:26 10° SSE 18:23:48 77° ENE 18:29:12 10° N
NOSS 3-1 (C) 4.1 18:16:19 10° NW 18:23:59 88° NE 18:32:48 10° SE
CZ-4B R/B 4.3 18:23:20 10° NNW 18:25:27 16° WNW 18:27:32 10° WSW
Cosmos 44 4.5 18:22:04 10° WSW 18:26:35 40° NW 18:29:51 19° NNE
X-37B 2.0 18:27:18 10° WNW 18:29:27 35° NW 18:29:27 35° NW
SL-08 RB Rocket 4.2 18:32:25 44° NNE 18:32:25 44° NNE 18:35:38 10° N
COSMOS 2406 3.1 18:26:20 10° NNW 18:32:08 71° ENE 18:34:24 38° SE
Cosmos 1833 Rocket 2.6 18:28:10 10° NNW 18:33:45 63° ENE 18:34:40 55° ESE
Cosmos 1346 Rocket 3.6 18:37:32 10° SSW 18:40:13 42° SSW 18:40:13 42° SSW
USA 267 3.7 18:41:52 41° SE 18:41:56 41° SE 18:48:01 10° SSW
USA 229 DEB 3.8 18:35:45 10° NW 18:43:10 86° NE 18:47:27 30° SE
USA 229 3.8 18:35:52 10° NW 18:43:16 85° NE 18:47:25 31° SE
Cosmos 2082 Rocket 3.1 18:39:19 10° NNW 18:43:04 34° NNE 18:43:04 34° NNE
Helios 1A Rocket 4.3 18:47:43 10° SSW 18:51:35 39° W 18:55:30 10° NNW
NOSS 3-1 (A) 4.0 18:51:05 10° NW 18:58:48 90° SSW 19:02:46 37° SSE
Cosmos 2278 Rocket 2.6 19:03:50 10° SW 19:09:25 59° WNW 19:10:25 51° NNW
USA 234 4.1 19:16:51 35° N 19:16:51 35° N 19:21:49 10° NW
